Hourly Weather Roundup
Issued by NWS Central Illinois

Home | Current Version | Previous Version | Text Only | Print | Product List | Glossary On
Versions: 1 2 3 4 5 6 7 8 9 10 11 12 13 14 15 16 17 18 19 20 21 22 23 24 25 26 27 28 29 30 31 32 33 34 35 36 37 38 39 40 41 42 43 44 45 46 47 48 49 50
000
NZUS43 KILX 181410
HWRILX

Area Weather Roundup
National Weather Service Lincoln IL
800 AM CST SUN FEB 18 2018

NOTE:  "FAIR" indicates few or no clouds below 12,000 feet, with
       no sigificant weather and/or obstructions to visibility.


CITY           SKY/WX    TMP DP  RH WIND       PRES   REMARKS
Bloomington    FAIR      25  24  96 SE16      30.24S WCI  12
Champaign      FAIR      28  26  92 SE14      30.29R WCI  17
Danville       FAIR      26  25  95 SE8       30.29R WCI  18
Decatur        FAIR      28  27  96 SE12      30.27S WCI  18
Effingham      FAIR      31  31 100 E8        30.33F FOG     WCI  24
Flora          FOG       31  30  97 E3        30.33S VSB 1/2
Galesburg      FAIR      23  23 100 SE5       30.25R WCI  17
Jacksonville   CLOUDY    31  27  84 S7        30.25R WCI  24
Lacon          FAIR      15  13  95 CALM      30.25R FOG
Lawrenceville  FAIR      32  30  92 E3        30.36R FOG
Litchfield     CLOUDY    30  29  96 SE9       30.26S WCI  22
$$


CITY           SKY/WX    TMP DP  RH WIND       PRES   REMARKS
Lincoln        FAIR      29  28  99 S10       30.27R WCI  19
Macomb         CLOUDY    28  27  95 S7        30.26R WCI  21
Mattoon        FAIR      29  27  92 S9        30.30S WCI  20
Mt Carmel AP   FAIR      30  30  98 CALM      30.35R FOG
Olney-Noble AP FAIR      31  29  93 E3        30.34S FOG
Paris AP       FAIR      28  28  96 SE10      30.33R WCI  19
Peoria         FAIR      22  21  96 SW3       30.27R FOG
Pontiac        FAIR      15  15  98 SE6       30.26R WCI   7
Rantoul        FAIR      28  27  95 SE12      30.29R WCI  18
Robinson       FAIR      29  28  97 CALM      30.37R
Springfield    FAIR      31  29  92 S9        30.26R WCI  23
Taylorville    FAIR      29  29  99 SE9       30.27S FOG     WCI  21
$$

...REGIONAL REPORTS...


CITY           SKY/WX    TMP DP  RH WIND       PRES   REMARKS
Chicago O`Hare FAIR      21  19  92 SE5       30.22F FOG     WCI  15
Kankakee       MIX PCPN  13  11  90 SE6       30.29S VSB 1/4 WCI   4
Moline         FAIR      19  17  92 E6        30.22R FOG     WCI  11
Mount Sterling CLOUDY    30  27  88 S7        30.22R WCI  23
Mount Vernon   FAIR      28  28 100 CALM      30.31F FOG
Pittsfield     CLOUDY    31  28  87 SE6       30.25R WCI  26
Quincy         CLOUDY    33  27  78 S12       30.21R WCI  24
Rockford       FOG       16  14  92 SE3       30.23R VSB<1/4
$$


CITY           SKY/WX    TMP DP  RH WIND       PRES   REMARKS
Burlington     CLOUDY    30  25  81 S9        30.20R WCI  22
Cedar Rapids   FAIR      26  22  84 SE13      30.11F FOG     WCI  15
Des Moines     CLOUDY    30  24  78 SE14      30.00F WCI  19
Kirksville     CLOUDY    31  26  82 S9        30.13S WCI  23
Ottumwa        CLOUDY    31  23  72 S18       30.09F WCI  19
St Louis       CLOUDY    37  30  75 SE9       30.25S WCI  30
$$


CITY           SKY/WX    TMP DP  RH WIND       PRES   REMARKS
Terre Haute    FAIR      30  28  92 SE7       30.34R WCI  23
Evansville     FOG       28  28 100 NE3       30.35R VSB 1/8
Indianapolis   CLOUDY    30  26  85 SE7       30.35R WCI  23
Lafayette      CLOUDY    27  25  92 SE8       30.32R WCI  19
Madison        PTSUNNY   20  19  96 SE3       30.16R
Milwaukee      PTSUNNY   24  21  88 CALM      30.20F
$$






USA.gov is the U.S. government's official web portal to all federal, state and local government web resources and services.